Regional Weather Roundup
Issued by NWS

Home | Current Version | Previous Version | Text Only | Print | Product List | Glossary Off
Versions: 1 2 3 4 5 6 7 8 9 10 11 12 13 14 15 16 17 18 19 20 21 22 23 24 25 26 27 28 29 30 31 32 33 34 35 36 37 38 39 40 41 42 43 44 45 46 47 48 49 50

510
ASUS43 KLMK 220710
RWRKY
KENTUCKY REGIONAL WEATHER ROUNDUP
NATIONAL WEATHER SERVICE LOUISVILLE KY
300 AM EDT FRI MAY 22 2015

NOTE "FAIR" INDICATES FEW OR NO CLOUDS BELOW 12,000 FEET
WITH NO SIGNIFICANT WEATHER AND/OR OBSTRUCTIONS TO VISIBILITY.

KYZ001>023-026-027-061>063-070>075-220800-
WESTERN AND SOUTH CENTRAL KENTUCKY

CITY           SKY/WX    TMP DP  RH WIND       PRES   REMARKS
PADUCAH        CLEAR     45  43  93 CALM      30.21S
HENDERSON      CLEAR     46  43  87 SW6       30.19S
OWENSBORO      CLEAR     45  44  96 CALM      30.20S
HOPKINSVILLE   CLEAR     47  45  92 W2        30.21S
BOWLING GREEN  CLEAR     47  43  86 CALM      30.21S
GLASGOW        CLEAR     43  43 100 CALM      30.21R FOG
$$

KYZ024-025-028>034-038-045-046-053-220800-
NORTH CENTRAL KENTUCKY

CITY           SKY/WX    TMP DP  RH WIND       PRES   REMARKS
LOUISVILLE/SDF CLEAR     50  44  80 S6        30.17S
LOUISVILLE/LOU CLEAR     46  43  89 CALM      30.17F
FORT KNOX      CLEAR     42  41  95 SW2       30.16F
$$

KYZ035>037-039>044-047>052-055>060-089>105-220800-
NORTHEAST KENTUCKY

CITY           SKY/WX    TMP DP  RH WIND       PRES   REMARKS
LEXINGTON      CLEAR     44  41  89 SW3       30.17S
COVINGTON      CLEAR     47  41  80 SW5       30.13S
FRANKFORT      CLEAR     44  40  85 SW3       30.16S
$$

KYZ054-064>069-076>088-106>120-220800-
SOUTHEAST KENTUCKY

CITY           SKY/WX    TMP DP  RH WIND       PRES   REMARKS
JACKSON        FOG       44  42  93 CALM      30.17S VSB 1/2
LONDON         FOG       45  41  86 CALM      30.19R VSB 1/2
SOMERSET       PTCLDY    43  43 100 CALM      30.21S FOG
MIDDLESBORO    CLEAR     49  46  91 CALM      30.20R
MONTICELLO     FOG       43  43 100 CALM      30.23S VSB<1/4
$$




USA.gov is the U.S. government's official web portal to all federal, state and local government web resources and services.